This demonstration page uses our WeatherBlox Daily Observations layout. Learn more.

Hourly Observations for June 25, 2015

Temp ( °F °C ) Dew Point ( °F °C ) Humidity (%) Winds ( mph kmh ) Pressure ( in mb ) Visibility ( mi km ) Precip ( " mm )
12:15 am 00:15 Clear 71 21.4 67 19.5 89 89 NE 7 11 29.88 1012 10 16.0934 0 0
12:35 am 00:35 Clear 70 21.2 67 19.5 90 90 NE 7 11 29.88 1012 10 16.0934 0 0
12:55 am 00:55 Clear 70 21 67 19.3 90 90 NE 7 11 29.91 1013 10 16.0934 0 0
1:15 am 01:15 Clear 70 21 67 19.3 90 90 NE 7 11 29.88 1012 10 16.0934 0 0
1:35 am 01:35 Clear 70 21 67 19.2 90 90 NE 7 11 29.88 1012 10 16.0934 0 0
1:55 am 01:55 Clear 69 20.8 66 19.1 90 90 NNE 8 13 29.91 1013 7 11.26538 0 0
2:15 am 02:15 Clear 69 20.6 66 19 91 91 NE 8 13 29.91 1013 7 11.26538 0 0
2:35 am 02:35 Clear 69 20.5 66 18.8 90 90 NE 8 13 29.91 1013 7 11.26538 0 0
2:55 am 02:55 Clear 68 20.2 65 18.5 90 90 NNE 7 11 29.91 1013 7 11.26538 0 0
3:15 am 03:15 Clear 68 20 65 18.5 91 91 NNE 5 7 29.91 1013 7 11.26538 0 0
3:35 am 03:35 Clear with Mist and Fog 67 19.2 64 18 93 93 NNE 3 6 29.94 1014 5 8.0467 0 0
3:55 am 03:55 Clear with Mist and Fog 66 18.8 64 17.7 93 93 NNE 5 7 29.94 1014 5 8.0467 0 0
4:15 am 04:15 Clear with Mist and Fog 66 18.9 64 17.9 94 94 N 6 9 29.94 1014 5 8.0467 0 0
4:35 am 04:35 Clear with Mist and Fog 65 18.5 64 17.5 94 94 NNE 5 7 29.94 1014 4 6.43736 0 0
4:55 am 04:55 Clear with Mist and Fog 65 18.6 64 17.6 94 94 NNE 8 13 29.94 1014 4 6.43736 0 0
5:15 am 05:15 Clear with Mist and Fog 65 18.6 64 17.7 95 95 NE 7 11 29.94 1014 4 6.43736 0 0
5:35 am 05:35 Clear with Mist and Fog 65 18.6 64 17.7 95 95 NE 8 13 29.94 1014 4 6.43736 0 0
5:55 am 05:55 Clear with Mist and Fog 66 18.7 64 17.8 95 95 NE 8 13 29.94 1014 3 4.82802 0 0
6:15 am 06:15 Partly Cloudy with Mist and Fog 65 18.6 64 17.7 95 95 NE 9 15 29.97 1015 2.5 4.02335 0 0
6:35 am 06:35 Cloudy with Mist and Fog 66 18.7 64 18 96 96 NE 12 19 29.97 1015 1.5 2.41401 0 0
6:55 am 06:55 Cloudy with Mist and Fog 66 19 65 18.1 95 95 ENE 10 17 29.97 1015 1 1.60934 0 0
7:15 am 07:15 Cloudy with Mist and Fog 66 19.1 65 18.3 95 95 NE 12 19 29.97 1015 1.25 2.011675 0 0
7:35 am 07:35 Cloudy with Mist and Fog 67 19.3 65 18.5 95 95 NE 13 20 29.97 1015 1.5 2.41401 0 0
7:55 am 07:55 Cloudy with Mist and Fog 67 19.3 65 18.5 95 95 NE 13 20 30 1016 2.5 4.02335 0 0
8:15 am 08:15 Cloudy with Mist and Fog 67 19.5 65 18.3 93 93 NE 12 19 30 1016 3 4.82802 0 0
8:35 am 08:35 Mostly Cloudy with Mist and Fog 67 19.5 65 18.2 92 92 NE 13 20 30 1016 3 4.82802 0 0
8:55 am 08:55 Cloudy with Mist and Fog 67 19.7 65 18.3 92 92 ENE 12 19 30 1016 4 6.43736 0 0
9:15 am 09:15 Cloudy with Mist and Fog 68 20.1 65 18.5 91 91 NE 7 11 30 1016 4 6.43736 0 0
9:35 am 09:35 Mostly Cloudy 70 20.9 65 18.6 87 87 ENE 14 22 29.97 1015 7 11.26538 0 0
9:55 am 09:55 Partly Cloudy 71 21.5 65 18.3 82 82 NE 13 20 29.97 1015 10 16.0934 0 0
10:15 am 10:15 Sunny 73 22.5 65 18.6 79 79 NNE 10 17 29.97 1015 10 16.0934 0 0
10:35 am 10:35 Sunny 74 23.5 66 18.7 75 75 NE 10 17 29.94 1014 10 16.0934 0 0
10:55 am 10:55 Sunny 74 23.1 65 18.2 74 74 NE 12 19 29.97 1015 10 16.0934 0 0
11:15 am 11:15 Sunny with Nearby Thunderstorms 74 23.1 65 18.1 74 74 NE 13 20 29.97 1015 10 16.0934 0 0
11:35 am 11:35 Sunny 75 24 64 17.7 68 68 NE 14 22 29.94 1014 10 16.0934 0 0
11:55 am 11:55 Sunny 75 24 63 17.4 67 67 ENE 9 15 29.94 1014 10 16.0934 0 0
12:15 pm 12:15 Sunny with Nearby Thunderstorms 74 23.6 63 17 67 67 E 8 13 29.94 1014 10 16.0934 0 0
12:35 pm 12:35 Sunny 75 23.8 63 17.1 66 66 E 5 7 29.94 1014 10 16.0934 0 0
12:55 pm 12:55 Sunny 76 24.2 63 17.3 65 65 E 6 9 29.94 1014 10 16.0934 0 0
1:15 pm 13:15 Mostly Cloudy 76 24.5 63 17.2 64 64 SE 6 9 29.94 1014 10 16.0934 0 0
1:35 pm 13:35 Partly Cloudy 77 25 64 17.6 64 64 ESE 6 9 29.94 1014 10 16.0934 0 0
1:55 pm 13:55 Partly Cloudy 76 24.2 64 17.8 68 68 ENE 9 15 29.91 1013 10 16.0934 0 0
2:15 pm 14:15 Sunny 78 25.7 65 18.4 64 64 NE 13 20 29.91 1013 10 16.0934 0 0
2:35 pm 14:35 Sunny 79 26 65 18.2 62 62 NE 15 24 29.88 1012 10 16.0934 0 0
2:55 pm 14:55 Sunny 80 26.5 64 17.7 59 59 NE 15 24 29.85 1011 10 16.0934 0 0
3:15 pm 15:15 Sunny 80 26.7 64 17.8 58 58 ENE 15 24 29.85 1011 10 16.0934 0 0
3:35 pm 15:35 Sunny 80 26.9 64 18 58 58 E 14 22 29.85 1011 10 16.0934 0 0
3:55 pm 15:55 Sunny 82 27.5 63 17.4 54 54 ENE 15 24 29.85 1011 10 16.0934 0 0
4:15 pm 16:15 Sunny 81 27.3 62 16.6 52 52 E 10 17 29.91 1013 10 16.0934 0 0
4:35 pm 16:35 Sunny 81 27 61 15.9 51 51 E 12 19 29.85 1011 10 16.0934 0 0
4:55 pm 16:55 Sunny 80 26.8 62 16.7 54 54 E 15 24 29.85 1011 10 16.0934 0 0
5:15 pm 17:15 Sunny 81 27.2 64 17.8 57 57 ENE 12 19 29.85 1011 10 16.0934 0 0
5:35 pm 17:35 Sunny 81 27 63 17.2 55 55 E 12 19 29.91 1013 10 16.0934 0 0
5:55 pm 17:55 Sunny 81 27 64 17.6 56 56 E 10 17 29.91 1013 10 16.0934 0 0
6:15 pm 18:15 Sunny 80 26.8 63 17.4 56 56 ENE 13 20 29.85 1011 10 16.0934 0 0
6:35 pm 18:35 Sunny 80 26.4 61 16.3 54 54 ENE 10 17 29.91 1013 10 16.0934 0 0
6:55 pm 18:55 Sunny 79 26.3 64 17.5 58 58 ENE 8 13 29.91 1013 10 16.0934 0 0
7:15 pm 19:15 Sunny 78 25.8 64 17.5 60 60 ENE 9 15 29.91 1013 10 16.0934 0 0
7:35 pm 19:35 Partly Cloudy 77 25.1 65 18.1 65 65 NE 10 17 29.88 1012 10 16.0934 0 0
7:55 pm 19:55 Partly Cloudy 77 24.9 62 16.5 60 60 NE 16 26 29.85 1011 10 16.0934 0 0
8:15 pm 20:15 Sunny 76 24.4 62 16.7 62 62 NE 14 22 29.88 1012 10 16.0934 0 0
8:35 pm 20:35 Sunny 75 23.9 61 16 61 61 ENE 16 26 29.88 1012 10 16.0934 0 0
8:55 pm 20:55 Sunny 74 23.5 60 15.7 62 62 ENE 15 24 29.88 1012 10 16.0934 0 0
9:15 pm 21:15 Clear 73 23 60 15.6 63 63 ENE 12 19 29.91 1013 10 16.0934 0 0
9:35 pm 21:35 Clear 73 22.6 60 15.6 65 65 NE 10 17 29.94 1014 10 16.0934 0 0
9:55 pm 21:55 Clear 72 22.2 61 15.9 68 68 NNE 9 15 29.97 1015 10 16.0934 0 0
10:15 pm 22:15 Clear 72 22 61 16 69 69 N 9 15 30 1016 10 16.0934 0 0
10:35 pm 22:35 Clear 71 21.6 61 16.1 71 71 N 8 13 30 1016 10 16.0934 0 0
10:55 pm 22:55 Clear 70 21.2 61 16 72 72 N 7 11 30 1016 10 16.0934 0 0
11:15 pm 23:15 Mostly Cloudy 70 21.3 61 16 72 72 NNW 7 11 30 1016 10 16.0934 0 0
11:35 pm 23:35 Partly Cloudy 69 20.8 60 15.6 72 72 N 7 11 30 1016 10 16.0934 0 0
11:55 pm 23:55 Clear 68 20.1 60 15.8 76 76 Calm 30 1016 10 16.0934 0 0

Powered by AerisWeather